Location: Boca do Mato
(22.9085°S, 43.2930°W)
Time: 10:10:42
(UTC+00:00)

Cosmos 2266 Rocket - Pass Details

Date: 06 November 2020
Orbit: 935 x 1007 km, 82.9° (Epoch: 28 November)

Event Time Altitude Azimuth Distance (km) Brightness Sun altitude
Rises 06:37:36 0° 173° (S) 3,642 7.5 -19.4°
Reaches altitude 10° 06:40:19 10° 165° (SSE) 2,682 6.9 -18.8°
Maximum altitude 06:45:57 38° 98° (E) 1,401 5.4 -17.7°
Drops below altitude 10° 06:51:29 10° 31° (NNE) 2,638 6.3 -16.5°
Sets 06:54:07 0° 23° (NNE) 3,575 6.9 -16.0°
